Theta_e
295 295 294 294 293 293 293 292 291 291 291 290 290 290 289 289 289 289 288 288 287 287 286 286 286 286 285 285 284 284 283 282 282 281 280 280 279 279 279 278 278 278 278 278 278 277 277 276 276 276 276 276 276 276 276 275 275 275 275 276 276 276 276 277 277 277 277 277 277 277 277 277 277 277 277 277 277 277 277 276 276 277 277 277 277
295 295 294 293 293 293 292 292 291 291 290 290 290 289 289 289 288 288 288 287 287 286 286 286 285 285 285 285 284 283 283 282 281 281 280 279 279 278 278 278 278 278 278 277 277 277 276 276 276 276 275 275 275 275 275 275 275 275 275 275 275 275 276 276 276 276 276 276 276 277 277 277 277 277 277 277 277 276 276 276 276 276 277 277 277
295 295 294 293 293 292 292 291 291 290 290 290 289 289 289 288 288 288 287 287 286 286 286 285 285 285 284 284 284 283 282 281 280 280 279 278 278 278 278 278 278 277 277 277 277 276 276 275 275 275 275 274 274 274 274 274 274 275 275 275 275 275 275 275 275 275 276 276 276 276 276 276 276 277 277 276 276 276 276 276 276 276 277 277 277
295 294 294 293 292 292 291 291 290 290 290 289 289 288 288 288 287 287 287 286 286 285 285 285 284 284 283 283 283 282 281 280 280 279 278 278 278 278 278 278 277 277 277 276 276 276 275 275 275 274 274 274 274 274 274 274 274 274 274 274 274 274 275 275 275 275 275 275 276 276 276 276 276 276 277 276 276 276 276 276 276 276 277 277 277
295 294 293 292 292 291 291 291 290 290 289 289 288 287 287 287 287 286 286 286 285 285 284 284 283 283 283 283 283 282 281 280 280 279 278 278 278 278 277 277 277 276 276 276 275 275 274 274 274 274 274 274 274 274 274 274 274 274 274 274 274 275 275 275 275 275 275 276 276 276 276 276 276 276 277 277 276 276 276 277 277 277 277 277 277
295 294 293 292 291 291 290 290 290 289 289 288 287 287 286 286 286 286 285 285 285 284 283 283 283 283 283 283 282 282 281 280 279 279 278 278 278 277 277 277 276 276 276 275 275 274 274 274 274 274 274 274 274 274 274 274 274 275 275 275 275 275 275 275 275 275 276 276 276 276 276 276 277 276 276 277 276 276 277 277 277 277 277 278 278
294 293 293 292 291 291 290 290 289 289 288 287 286 286 285 285 285 285 285 284 284 283 283 282 282 282 282 282 282 281 281 280 279 278 278 278 277 277 276 276 276 275 275 275 274 274 274 274 274 274 274 274 274 274 275 275 275 275 275 275 275 275 276 276 276 276 276 276 276 276 276 276 277 277 277 277 277 277 277 277 277 278 278 278 278
294 293 292 291 290 290 290 289 289 288 287 286 286 285 284 284 284 284 284 283 283 283 282 282 281 281 281 281 281 281 280 279 278 278 278 278 277 276 276 276 275 275 274 274 274 274 274 274 274 274 274 274 275 275 275 275 275 275 275 276 276 276 276 276 276 276 276 276 276 277 276 276 277 277 277 277 277 277 277 277 278 278 278 278 278
293 292 291 291 291 290 289 289 288 287 286 285 285 284 284 283 283 283 283 282 282 282 281 281 281 280 280 280 280 279 279 278 278 278 278 277 277 276 276 275 274 274 274 274 274 274 274 275 275 275 275 275 276 276 276 277 277 277 277 277 277 277 277 277 277 277 277 277 276 277 277 277 277 277 277 277 277 277 277 278 278 278 278 278 278
292 291 291 290 290 290 289 288 287 286 285 284 284 283 283 282 282 282 282 281 281 280 280 280 280 280 280 279 279 278 278 278 278 278 278 277 276 276 275 275 274 274 274 274 275 275 275 275 276 276 276 277 277 277 277 278 278 278 278 278 278 278 278 278 278 278 278 278 278 278 278 278 278 278 278 278 278 278 278 278 278 278 279 279 279
292 291 291 290 290 289 288 287 286 285 284 284 283 282 282 281 281 281 281 280 280 279 279 279 279 279 279 279 278 278 278 278 278 278 277 277 276 276 275 275 275 275 275 275 275 276 276 276 276 276 276 276 276 276 277 277 277 277 278 278 278 278 278 278 279 279 279 279 279 279 279 279 279 279 279 278 278 279 279 279 279 279 279 279 279
291 291 290 289 289 288 287 286 285 284 284 283 282 282 281 280 280 280 279 279 279 278 278 278 278 278 278 278 278 278 278 278 278 277 276 277 277 277 276 276 276 276 276 276 276 276 276 276 276 276 276 276 276 276 276 276 276 277 277 277 277 278 278 278 278 279 279 279 279 279 279 279 279 278 279 279 278 279 279 279 279 279 280 280 280
291 290 290 289 288 287 286 285 284 283 283 282 281 281 280 279 279 279 279 278 278 278 277 277 277 277 277 277 277 277 277 278 277 276 276 277 277 277 277 277 276 276 276 276 276 276 276 276 276 275 275 275 275 275 275 275 276 276 276 277 277 277 277 278 278 278 278 278 278 278 278 278 278 278 278 278 278 278 279 279 279 279 280 280 280
290 289 289 288 287 286 285 284 283 283 282 281 280 280 279 279 278 278 278 277 277 276 276 276 276 276 276 277 277 277 277 277 276 276 276 276 277 277 277 277 276 276 276 276 276 275 275 275 275 275 275 275 275 275 275 276 276 276 277 277 277 277 277 277 277 277 278 278 278 278 278 278 278 278 278 278 278 278 278 279 279 279 279 279 279
289 289 288 287 286 285 284 283 282 281 281 280 279 279 278 278 277 277 277 276 276 276 275 275 275 275 276 277 277 277 277 277 276 275 275 276 276 277 277 277 276 276 276 275 275 275 274 274 274 275 275 275 275 275 276 276 277 277 277 277 277 277 277 277 277 277 277 277 278 278 278 278 278 278 278 278 278 278 278 278 278 278 279 279 279
288 288 287 286 285 285 284 283 281 280 280 279 278 278 277 277 277 276 276 275 275 275 275 275 275 276 276 277 277 277 277 276 275 275 275 275 276 277 276 276 276 275 275 274 274 274 274 274 274 274 275 275 275 276 276 277 277 277 277 277 277 277 277 277 277 277 278 278 278 278 278 278 279 279 279 279 279 279 279 279 279 279 279 279 280
287 287 286 285 285 284 283 282 281 280 279 278 277 277 277 276 276 276 275 275 274 274 274 275 275 276 277 277 277 277 276 275 275 274 274 275 276 276 275 275 275 274 274 274 274 274 274 274 274 275 275 275 275 276 276 277 277 277 277 277 277 277 277 277 277 277 277 277 277 277 277 278 278 279 279 280 280 280 281 281 281 280 280 280 280
286 286 286 285 284 284 283 282 281 279 278 278 277 276 276 276 275 275 275 274 274 274 274 275 275 276 277 277 276 276 276 275 274 274 274 275 276 275 275 275 274 274 274 274 274 274 274 274 275 275 275 275 275 276 276 277 277 277 277 277 277 277 277 276 276 276 275 276 276 276 277 277 277 277 278 278 279 280 281 281 281 281 281 281 281
287 286 286 285 284 283 282 281 280 279 278 277 277 276 276 275 275 275 275 274 274 274 274 274 275 275 276 276 276 276 275 274 274 274 274 275 275 275 275 274 274 274 274 274 274 274 274 275 275 275 275 275 275 276 276 277 277 277 277 277 277 276 275 275 275 275 275 276 275 275 274 274 274 275 276 277 278 279 280 280 281 281 281 282 282
287 286 285 284 283 282 282 281 280 279 278 277 276 276 275 275 274 274 274 273 273 273 273 274 274 274 275 275 275 275 274 274 274 274 274 274 275 275 275 274 274 274 273 274 274 275 275 274 274 274 275 275 275 275 276 277 277 277 277 276 275 274 274 274 275 275 275 274 273 272 272 273 273 274 275 276 278 279 279 280 280 281 281 282 282
286 285 284 283 282 281 281 280 279 278 277 277 276 275 275 274 274 273 273 273 273 272 272 273 274 274 274 274 274 274 274 274 274 274 274 274 275 275 275 274 274 274 274 275 275 275 274 274 274 273 274 274 275 276 276 276 276 276 275 274 274 274 275 275 274 273 272 271 271 271 272 272 273 274 276 277 279 280 280 280 281 281 281 281 282
285 285 283 282 281 280 280 279 278 277 277 276 275 274 274 273 273 273 272 272 272 271 271 271 272 272 272 272 273 273 273 273 273 273 273 274 274 275 274 274 274 275 275 275 275 274 274 273 273 272 273 274 275 275 275 275 275 274 274 273 274 274 274 273 272 271 270 271 271 272 272 272 273 274 276 278 280 281 281 282 281 281 281 282 282
285 284 283 281 280 279 279 278 277 276 276 275 274 273 273 272 272 272 272 272 271 270 270 270 270 270 270 270 271 272 272 272 272 272 272 273 274 274 274 275 275 275 275 275 274 274 273 272 272 272 274 274 274 274 274 274 273 272 272 273 274 274 272 271 270 270 270 271 271 272 272 272 273 274 275 276 277 278 279 281 282 282 282 282 282
284 283 281 280 279 278 277 277 276 275 275 274 274 273 272 271 271 271 271 271 271 270 269 269 270 270 270 270 270 271 271 271 272 271 272 272 273 274 274 275 275 275 275 274 274 273 272 272 272 273 274 273 273 272 272 272 271 271 272 272 272 271 270 269 269 270 270 271 271 272 272 272 273 273 274 274 274 275 276 278 281 283 283 283 283
282 281 280 278 278 277 276 276 275 275 274 274 273 272 271 271 270 270 270 270 270 270 269 269 270 270 270 270 270 270 271 270 270 271 271 272 273 273 274 274 274 274 274 273 273 272 272 272 273 272 272 271 271 270 270 269 270 270 271 270 270 269 269 269 269 270 270 271 271 271 272 272 272 273 273 273 273 274 276 278 281 283 284 283 283
281 279 278 277 276 275 275 274 274 273 273 273 273 272 271 270 270 270 270 270 270 270 270 270 270 270 270 270 270 270 270 270 270 270 271 272 272 273 273 274 273 273 273 272 272 272 272 272 271 270 269 269 269 268 268 268 268 268 268 268 268 268 268 268 269 270 270 271 271 271 272 272 272 272 272 272 273 274 276 277 279 281 283 284 284
279 277 276 275 274 274 274 273 272 272 272 272 272 271 270 270 270 269 269 270 270 271 270 270 270 270 270 270 270 270 270 269 269 270 271 271 272 272 272 272 272 272 272 271 271 271 271 271 270 269 268 268 267 267 267 267 267 267 267 267 267 268 268 269 269 270 270 271 271 271 271 271 271 272 272 272 273 274 274 275 276 279 282 284 285
278 276 275 274 273 273 273 272 271 271 271 271 270 270 270 270 270 270 270 271 271 271 270 270 270 271 270 270 269 269 269 269 269 270 271 272 272 272 272 272 272 272 271 270 271 271 270 270 270 269 268 266 266 266 266 266 266 266 266 267 267 268 268 268 269 269 270 270 271 271 271 271 271 272 272 272 272 272 273 274 275 277 279 282 284
277 276 274 273 272 271 271 271 270 270 270 270 270 269 269 269 269 270 271 272 273 273 272 271 271 271 271 270 270 269 269 269 270 271 272 272 273 273 273 273 272 271 271 271 271 270 269 269 268 267 266 265 265 265 265 265 265 266 266 267 267 267 268 268 269 269 269 270 270 271 271 271 271 272 272 272 272 272 272 273 274 275 277 279 282
276 275 273 271 271 270 270 270 270 270 269 269 269 269 269 269 270 271 271 272 273 273 273 273 273 272 271 270 271 271 271 271 271 272 273 273 273 273 273 272 272 272 271 271 270 268 268 267 266 265 264 264 264 264 264 265 265 265 266 266 267 267 268 268 269 269 269 270 270 271 271 271 271 271 271 271 271 271 272 272 273 274 275 277 280
275 273 272 271 270 270 269 269 269 269 269 268 268 268 269 270 270 271 271 272 272 272 273 272 273 273 272 271 271 271 272 272 272 273 273 273 273 273 272 272 271 271 270 269 269 268 266 264 264 264 264 263 263 264 264 264 265 265 265 266 267 267 268 268 269 269 269 270 270 271 271 271 271 271 271 271 271 271 271 272 272 273 274 276 277
275 273 272 271 270 270 269 269 268 268 269 268 268 269 270 271 271 271 271 272 273 273 273 272 272 272 271 271 270 271 271 272 273 273 272 272 272 272 271 271 271 270 269 268 268 267 264 263 263 263 263 263 263 263 264 264 264 265 265 266 267 267 268 268 269 269 269 270 271 271 271 271 271 271 271 271 271 271 271 271 272 272 273 274 276
277 275 272 271 270 269 269 268 268 268 269 268 268 270 270 271 272 272 273 274 274 273 273 273 272 271 271 271 270 271 272 273 273 272 272 271 271 270 270 269 269 268 268 268 267 266 264 263 263 263 262 262 262 263 263 264 264 264 265 266 266 267 267 268 268 269 269 270 271 271 271 271 271 271 271 270 270 270 270 271 271 272 272 273 274
278 276 273 271 270 269 269 268 268 268 269 268 269 270 271 271 272 273 273 274 274 274 273 273 273 272 272 271 271 271 272 272 272 271 271 270 270 269 269 268 268 267 267 267 267 265 264 263 262 262 262 262 262 262 263 263 264 264 265 265 266 267 267 268 269 269 270 270 271 271 271 271 271 271 270 270 270 270 270 270 271 271 272 272 273
277 276 273 271 270 269 269 269 268 269 269 269 269 271 271 271 272 273 273 274 273 273 273 274 273 273 272 272 272 272 272 272 271 271 270 269 269 268 268 268 267 267 267 267 266 265 263 262 262 261 261 261 261 262 262 263 263 264 264 265 266 267 267 268 269 269 270 271 271 271 271 271 271 270 270 270 270 270 270 270 270 271 271 272 273
276 274 272 271 270 270 269 269 269 269 269 269 270 271 271 271 272 272 273 273 272 271 272 273 273 273 272 272 272 272 272 271 271 270 269 268 268 268 268 268 268 268 267 267 266 265 264 262 261 261 261 261 262 262 262 262 263 264 264 265 266 266 267 268 269 270 270 271 271 271 271 271 270 270 270 270 269 269 270 270 270 270 271 272 272
275 273 272 270 270 270 270 269 269 269 269 269 270 271 271 271 271 272 271 271 270 269 269 270 271 271 271 271 271 272 271 270 270 268 267 268 268 268 268 268 268 267 267 266 266 265 264 263 262 261 262 262 262 262 261 262 262 263 264 265 266 266 268 269 269 270 270 270 270 270 270 270 270 270 270 269 269 269 269 270 270 270 271 271 272
274 273 272 270 270 270 270 269 269 269 270 270 270 270 270 270 270 270 270 269 268 267 267 268 268 268 269 269 270 271 270 269 268 267 267 267 267 267 267 267 267 266 266 266 264 263 263 263 262 263 263 263 262 261 261 261 262 263 264 264 266 267 268 269 269 270 270 271 270 270 270 270 270 270 269 269 269 269 269 270 270 270 271 271 272
274 273 271 271 270 270 270 269 269 270 269 269 270 270 269 269 269 269 268 267 266 266 266 266 266 266 267 268 268 269 268 267 266 266 266 267 267 266 266 266 266 266 266 265 263 262 262 263 264 264 264 263 262 261 261 261 262 263 264 264 266 267 268 269 269 270 271 271 270 270 270 270 270 269 269 269 269 269 269 269 270 270 270 271 271
273 272 271 271 270 270 270 270 270 269 269 269 269 269 268 268 268 267 266 265 265 265 265 265 264 265 266 267 267 267 267 266 265 266 266 266 266 266 266 266 266 265 265 264 263 263 263 264 264 264 264 263 262 262 262 262 262 263 264 265 266 267 268 269 269 270 271 271 270 270 270 269 269 269 269 269 269 269 269 269 269 270 270 270 271
272 271 271 271 270 270 269 269 269 269 269 268 268 268 267 267 267 266 265 265 264 264 264 264 264 264 265 266 266 266 266 266 265 265 265 265 265 265 265 265 265 265 264 264 264 264 265 265 264 263 263 263 263 263 263 263 263 263 264 265 266 267 268 269 270 270 271 271 270 270 269 269 269 269 269 269 269 269 269 269 269 270 270 271 271
272 271 271 271 270 270 269 269 269 268 268 267 267 267 266 266 266 265 264 264 263 263 263 263 263 264 265 266 266 265 266 266 265 265 265 265 264 264 264 264 264 264 264 264 265 265 265 265 264 263 263 263 263 264 264 263 263 263 264 265 266 267 268 269 270 271 271 271 270 269 269 269 269 269 269 269 269 269 269 269 269 270 270 270 271
272 271 270 270 270 269 268 268 267 267 267 267 266 266 265 265 265 264 264 263 263 263 262 262 262 264 266 267 267 265 264 265 265 265 264 264 264 263 263 263 263 263 264 264 265 265 265 264 264 264 264 264 264 264 264 264 264 263 264 265 266 267 268 269 270 271 271 270 270 269 269 269 269 269 269 269 269 269 269 269 269 269 270 270 271
271 270 270 269 269 268 268 267 267 266 266 266 265 265 264 264 264 263 263 262 262 262 262 262 263 264 266 267 266 265 264 264 264 264 264 264 263 263 263 263 263 264 264 265 265 265 264 264 264 264 264 265 265 265 265 265 265 264 264 265 266 267 269 270 270 270 271 270 269 269 268 268 268 268 268 269 269 269 269 269 269 269 270 270 271
270 269 269 268 267 267 267 266 266 266 265 265 264 264 263 263 263 263 262 262 261 261 261 262 263 264 265 265 265 264 263 264 264 263 263 263 263 263 263 263 263 264 264 264 264 264 264 264 264 264 265 265 265 265 265 265 265 265 265 266 267 268 269 270 270 271 271 270 269 268 268 268 268 268 268 269 269 269 269 269 269 269 269 270 271
269 269 268 267 267 266 266 266 265 264 264 263 263 263 263 263 262 262 261 261 261 260 260 261 262 263 263 263 263 263 263 263 263 263 263 262 262 262 263 263 263 264 264 264 264 264 264 264 264 264 265 265 265 265 265 265 265 266 266 266 267 268 269 270 270 271 271 270 269 268 268 268 268 268 268 268 268 269 269 269 269 269 269 270 271
268 268 267 266 266 266 265 265 264 263 263 263 262 262 262 262 261 261 261 261 260 260 260 260 261 261 262 262 262 262 263 263 263 263 262 262 262 262 263 263 263 264 264 264 264 264 264 264 264 264 265 265 265 265 265 265 265 266 266 266 268 269 269 270 271 271 271 270 269 268 267 267 267 268 268 268 268 268 268 268 269 269 269 270 270
267 267 266 266 265 265 264 263 263 262 262 262 262 261 261 261 260 260 260 260 260 259 259 260 260 261 262 262 262 262 263 263 262 262 262 262 262 262 263 263 263 264 264 263 264 264 264 264 264 264 265 265 265 265 265 265 265 266 266 267 268 269 269 270 271 272 271 270 268 267 267 267 267 267 268 268 268 268 268 268 268 269 269 269 270
267 266 265 265 264 264 263 263 262 262 262 261 261 260 260 260 260 259 259 259 259 260 260 260 261 261 262 262 262 262 262 262 262 262 262 262 262 262 263 263 263 263 263 263 263 263 264 264 264 264 264 265 265 265 265 265 265 266 266 267 268 269 270 270 271 272 271 270 268 267 267 267 267 267 268 268 268 268 268 268 268 269 269 269 270
266 265 265 264 263 263 263 263 262 262 261 261 260 260 259 259 259 259 259 259 259 259 260 261 262 262 262 262 262 262 262 262 262 262 261 261 261 262 263 263 263 263 263 263 263 263 264 264 264 264 264 265 265 265 265 265 265 266 266 267 268 269 270 271 271 272 271 269 268 267 267 267 267 267 267 268 268 268 268 268 268 268 268 269 269
265 264 264 263 263 263 262 262 261 261 260 260 260 259 259 259 258 259 259 259 259 260 261 262 262 262 262 262 262 262 262 262 262 261 261 261 262 262 263 263 263 263 263 263 263 263 263 264 264 264 264 264 264 264 265 265 266 266 266 267 268 269 270 271 271 271 271 269 268 267 267 267 267 267 267 267 268 268 268 268 268 268 268 268 269
Wind_Speed
41 42 43 42 41 41 42 42 41 40 40 40 41 41 41 41 42 41 40 40 39 39 38 37 35 33 31 29 27 26 25 24 22 20 18 17 17 16 16 17 18 18 17 18 18 19 21 23 25 25 23 23 24 24 24 23 23 24 23 24 26 23 25 25 17 20 41 46 44 52 51 43 47 46 39 41 41 36 38 41 38 38 41 42 43
42 43 42 40 41 41 39 38 38 38 39 39 40 41 41 42 42 41 40 40 40 40 39 38 36 34 31 29 27 26 25 24 22 20 19 18 18 18 18 18 18 18 17 18 19 19 21 23 24 25 23 23 24 24 24 24 23 25 25 23 26 26 24 26 24 18 29 44 44 48 52 44 42 45 41 40 42 38 39 42 41 40 42 44 46
41 40 38 38 39 37 36 36 37 38 39 40 40 41 41 42 42 42 42 41 41 40 40 38 36 34 31 29 28 26 25 23 21 20 19 19 18 18 18 18 17 17 18 18 19 20 21 23 24 24 23 22 24 24 23 24 23 24 26 25 26 29 27 26 28 24 25 38 43 43 48 46 42 44 43 42 42 40 40 44 44 44 45 46 48
38 36 37 37 36 35 35 36 37 39 40 41 41 41 41 42 42 42 42 42 41 40 39 38 36 34 31 29 28 26 25 22 21 20 19 18 17 17 17 17 17 17 18 19 19 20 22 24 25 24 23 23 24 24 23 23 25 24 26 28 27 29 30 28 29 29 28 34 41 42 43 46 46 45 44 44 43 42 43 44 45 46 48 47 47
37 37 37 35 35 36 37 37 39 41 42 42 42 41 41 42 42 42 42 42 41 40 39 37 36 34 32 30 29 27 25 23 21 20 19 17 17 17 16 16 17 17 18 19 20 21 23 24 25 23 23 24 24 25 24 24 25 26 26 28 29 29 31 30 31 33 32 34 40 43 43 45 48 47 45 43 43 42 42 44 45 46 47 46 45
36 36 36 36 36 37 38 40 42 43 43 42 40 40 41 41 42 42 42 42 41 40 39 38 37 35 33 31 29 27 24 22 20 19 18 17 16 16 16 16 16 17 18 19 20 22 23 24 25 24 23 26 26 25 25 25 26 28 29 31 33 34 35 33 32 34 35 37 41 44 43 43 45 46 43 39 39 38 39 42 45 43 43 43 43
35 35 36 37 37 38 40 42 42 42 42 40 39 40 41 41 42 43 42 42 41 41 39 38 37 34 32 30 28 25 23 21 20 18 17 17 16 16 16 15 17 18 19 20 21 22 24 24 25 25 25 26 27 27 27 29 30 31 33 34 33 32 33 32 31 32 34 35 36 40 42 41 43 45 44 40 38 38 37 38 40 41 39 38 40
35 36 36 36 37 39 41 41 41 40 39 39 39 40 40 41 41 42 41 41 40 40 39 38 35 33 31 29 26 24 22 21 20 18 17 16 16 15 15 15 17 18 18 20 21 22 24 25 25 25 26 26 27 28 28 29 30 30 30 30 31 31 31 31 29 30 32 31 30 35 38 38 39 42 42 37 33 34 35 34 37 40 38 38 43
35 35 35 37 39 40 39 38 38 38 38 38 38 38 39 40 40 40 40 39 39 38 37 36 34 32 29 27 25 23 22 21 20 17 16 16 15 14 14 15 16 17 19 20 21 22 23 24 23 23 25 26 26 27 28 28 29 31 30 28 29 30 30 29 28 25 25 24 25 29 28 28 31 31 30 30 28 31 36 36 37 41 39 38 44
35 35 36 38 39 37 37 36 36 36 37 38 38 38 38 39 39 39 39 38 37 36 35 34 33 32 29 27 25 23 22 21 18 15 15 14 13 12 12 14 15 16 18 18 18 19 19 20 22 22 23 25 26 26 28 30 31 34 34 32 31 30 29 30 29 26 23 21 22 23 18 19 28 28 26 31 34 35 36 32 33 38 35 30 36
35 36 37 37 35 35 35 35 36 37 38 38 38 39 39 39 39 38 38 37 36 36 35 34 33 31 30 27 25 23 22 19 15 14 13 12 11 12 12 14 15 14 15 16 16 17 18 19 20 21 23 24 25 26 28 30 32 33 34 34 34 34 33 32 30 29 26 24 25 27 21 21 31 35 32 35 36 33 33 31 30 32 26 17 20
34 35 35 33 34 35 36 36 37 38 39 39 39 39 39 38 38 38 38 37 37 36 35 34 33 31 29 26 24 23 21 17 14 14 13 12 12 12 13 14 15 14 14 15 17 17 17 18 18 19 22 23 24 27 29 30 32 33 34 35 34 34 35 36 35 33 30 27 27 30 29 29 33 37 36 35 37 35 34 33 31 29 25 18 14
34 33 32 33 35 36 37 37 38 38 38 39 39 39 39 39 39 39 39 38 37 36 35 33 32 30 28 26 24 22 19 16 15 14 12 11 11 12 13 15 14 14 15 15 16 16 16 17 18 20 22 23 25 28 30 32 33 33 33 35 35 36 36 37 39 39 38 37 33 34 38 39 37 40 40 37 37 37 32 31 33 30 28 26 25
32 31 32 34 36 36 37 37 37 37 37 38 39 39 40 39 38 38 38 37 36 34 33 32 30 29 28 25 23 22 19 16 15 14 13 12 10 11 13 14 14 15 15 15 14 15 16 18 20 21 23 24 26 28 29 31 33 33 34 36 36 36 35 36 39 40 41 42 40 41 46 47 45 48 49 44 43 42 36 36 38 35 35 41 46
31 31 32 34 35 35 36 36 35 35 36 37 38 38 38 37 36 36 36 35 35 34 33 32 30 28 27 25 23 21 18 16 16 16 14 12 10 10 12 13 14 14 14 14 14 15 17 19 21 22 24 25 26 27 28 30 32 34 35 36 36 36 37 39 40 40 42 43 43 44 46 47 48 50 51 49 48 48 47 49 50 46 45 47 48
30 31 32 33 34 35 36 35 34 35 36 36 36 37 37 36 36 36 36 35 35 34 33 32 31 29 27 25 23 21 18 17 17 16 14 11 10 11 12 13 14 14 13 13 14 16 17 19 21 23 25 26 27 27 28 30 32 33 34 36 38 39 41 41 39 39 40 40 41 43 45 47 50 51 52 51 49 49 50 49 47 43 36 28 25
30 32 33 33 35 36 37 37 36 36 37 37 38 37 37 37 37 37 37 35 35 35 34 33 32 30 28 26 23 21 19 18 17 16 14 11 10 11 13 13 14 14 12 12 14 16 18 19 21 23 25 26 26 27 28 29 31 32 34 38 39 39 40 39 37 36 37 38 42 45 47 49 51 52 53 52 51 52 46 37 34 31 22 12 12
30 32 33 35 37 38 39 40 39 39 40 40 39 39 38 38 39 39 38 37 37 37 36 34 32 29 27 26 23 21 20 18 17 17 14 12 10 11 12 12 13 13 13 13 15 17 18 20 21 23 25 25 26 27 27 27 30 33 34 35 35 35 37 37 36 38 40 41 42 42 43 45 47 50 53 52 51 51 45 38 36 29 17 10 10
33 35 35 35 37 38 39 41 41 41 41 41 40 40 40 39 39 38 37 36 36 36 35 34 32 29 27 25 23 21 20 19 18 17 15 12 11 11 12 12 13 13 13 14 16 17 18 19 20 22 24 24 25 26 26 27 31 33 33 32 33 34 36 37 37 40 40 39 38 38 41 46 48 50 52 51 49 49 47 45 43 33 20 15 13
30 31 31 32 35 38 39 41 42 42 42 40 39 40 39 38 37 37 35 33 33 33 33 33 32 30 28 26 24 23 21 20 19 17 15 12 11 11 12 12 12 12 13 16 18 18 18 18 19 20 22 23 24 26 28 30 31 32 32 31 31 32 36 39 39 39 38 38 40 43 45 47 47 47 47 46 47 47 45 45 45 40 31 23 19
21 23 26 30 34 37 38 39 40 40 40 39 38 38 38 37 38 37 35 33 31 31 32 32 31 30 28 27 25 23 22 20 19 17 13 11 10 10 10 11 11 12 15 16 17 18 18 17 17 18 20 23 25 28 30 30 30 31 30 29 30 34 37 38 39 40 40 41 43 43 43 43 42 41 40 40 42 42 41 40 41 42 39 31 24
20 23 26 29 31 33 34 36 36 36 37 37 37 36 35 36 37 37 36 35 33 31 31 30 29 28 26 25 24 23 21 20 17 15 12 10 10 10 10 10 10 11 14 16 16 17 17 17 17 19 21 24 27 29 30 29 28 28 28 29 31 33 34 35 37 40 40 40 40 38 37 38 36 34 33 35 36 36 36 36 38 39 40 39 35
21 24 26 28 29 31 32 32 34 34 35 36 37 35 33 34 35 36 37 36 33 30 29 29 28 26 24 23 22 22 21 19 17 15 13 11 11 10 10 10 9 10 13 15 16 16 16 16 18 21 24 25 27 27 27 27 26 25 26 28 30 31 32 33 35 36 35 35 34 32 32 33 31 29 29 32 34 35 35 35 36 38 39 41 42
22 25 27 28 29 30 30 31 32 33 34 35 34 33 34 34 34 34 35 35 32 29 27 26 27 26 24 22 21 20 19 19 17 14 12 11 10 10 9 9 8 10 12 14 15 15 16 18 20 23 25 26 25 25 24 25 25 25 27 28 29 30 31 32 32 32 31 30 28 28 29 29 28 28 30 33 36 39 40 38 37 38 39 40 41
24 26 27 29 30 31 31 31 33 34 35 36 35 34 34 34 33 33 33 33 31 28 25 25 27 28 25 23 22 20 18 18 17 14 11 10 9 9 8 8 8 10 11 13 15 16 16 19 21 23 24 23 23 23 24 24 24 26 27 27 28 29 30 30 30 29 27 26 26 28 30 30 30 32 35 38 38 37 36 35 35 36 38 40 40
24 25 26 28 30 31 31 31 32 33 35 36 35 36 37 36 34 32 31 31 29 27 27 27 27 26 24 23 22 21 18 17 17 14 12 10 9 8 8 8 8 9 10 12 13 14 16 19 22 22 21 20 20 21 23 24 24 25 26 25 26 28 29 29 29 27 26 27 28 29 30 31 34 36 36 35 33 31 30 30 32 32 32 33 33
24 24 26 27 29 32 33 32 32 33 34 34 34 34 36 37 36 34 33 31 28 25 28 30 28 25 24 22 21 20 18 17 17 15 13 11 8 7 7 7 8 9 11 12 12 13 16 20 21 20 19 19 20 20 22 24 25 26 27 26 26 27 28 28 28 28 28 28 28 28 30 33 35 35 33 31 29 30 30 29 29 30 29 29 26
25 26 27 28 29 31 32 34 34 34 34 35 34 34 36 38 38 39 39 38 33 28 29 32 32 30 28 25 22 20 18 19 19 17 14 11 8 6 6 7 8 9 11 11 11 13 17 19 18 18 20 22 23 24 24 25 25 26 27 28 28 28 27 28 27 27 28 29 29 30 32 33 33 32 31 30 30 31 30 28 27 28 29 27 19
26 26 27 27 28 28 29 31 32 32 31 31 31 32 36 38 38 37 38 39 37 35 35 36 34 32 30 29 27 24 21 21 20 16 12 9 8 6 6 6 7 8 8 9 10 13 15 15 16 19 20 21 23 24 25 25 25 25 26 28 29 29 28 27 27 28 29 30 30 31 31 31 31 31 30 29 31 31 29 27 26 26 27 25 17
24 25 26 26 27 28 28 29 30 30 31 31 30 29 30 32 35 36 34 34 33 33 33 35 35 33 31 29 27 25 23 21 18 13 10 8 7 6 5 5 6 6 5 7 10 11 12 13 16 18 18 19 21 22 23 24 25 26 27 27 28 28 28 27 28 29 31 31 31 31 31 30 29 29 29 28 30 30 28 26 25 24 24 21 15
21 22 25 27 29 30 29 29 30 29 30 33 35 32 26 24 28 31 30 27 26 25 25 27 30 31 29 26 22 20 19 17 14 11 10 9 7 5 5 5 4 3 3 6 7 8 10 12 15 17 18 19 19 20 22 23 24 26 28 28 27 27 27 28 30 32 32 32 31 31 31 30 29 29 29 28 29 29 28 26 23 23 24 21 14
22 23 26 28 30 31 29 28 29 29 28 31 35 36 31 23 19 22 23 21 19 19 18 20 22 24 24 24 23 20 16 13 12 11 10 9 6 5 5 5 3 3 4 5 6 7 9 11 14 16 18 18 19 20 22 23 23 25 27 27 27 27 27 29 32 33 32 31 30 31 31 31 30 29 29 28 27 27 26 24 22 21 23 22 18
27 26 26 26 27 28 28 27 29 29 29 30 35 38 34 26 20 21 23 21 19 18 18 19 20 20 19 20 20 18 15 13 13 12 10 8 7 6 6 6 5 3 3 3 6 8 10 11 13 16 17 18 20 21 21 22 24 25 25 26 27 29 30 31 32 32 31 31 31 31 32 31 30 29 29 28 26 25 24 23 21 21 20 18 16
31 27 27 28 28 28 28 27 28 28 28 30 34 34 31 28 27 27 27 25 23 22 21 20 20 19 18 17 16 16 14 14 13 12 10 9 8 7 8 9 7 3 1 4 7 9 10 12 14 16 17 18 20 21 21 23 25 26 26 26 27 29 31 31 31 31 31 31 32 32 32 32 31 28 28 27 26 24 23 22 20 19 17 15 13
30 27 29 31 30 28 28 28 28 28 28 30 33 31 28 29 29 29 27 26 25 25 23 22 22 20 19 18 16 15 15 14 13 12 10 9 9 8 8 9 7 3 1 4 7 9 10 12 14 15 17 18 19 21 22 25 26 27 27 28 28 29 30 31 31 31 32 33 33 33 33 33 31 29 28 27 25 23 22 21 20 19 18 17 14
29 27 28 31 31 29 29 29 29 29 28 29 30 28 27 28 28 27 26 26 25 25 24 25 25 22 19 19 17 16 15 14 13 12 10 9 10 10 8 7 5 2 2 5 7 9 11 12 14 16 18 19 21 23 24 26 27 28 28 28 29 29 30 30 31 32 33 33 34 34 33 33 31 30 29 27 26 24 23 23 22 21 21 21 19
30 28 29 31 30 29 28 28 29 29 28 28 28 26 25 26 27 26 26 25 25 25 26 28 28 25 21 20 18 17 16 15 14 13 11 10 10 8 7 5 3 2 3 6 8 11 13 13 14 17 19 21 23 25 26 27 28 28 29 29 29 29 29 30 31 32 32 32 33 33 33 32 32 31 30 27 26 25 24 23 23 22 24 25 22
32 30 30 31 31 29 28 28 28 29 29 29 29 27 25 25 26 25 25 26 27 27 27 27 27 26 24 23 22 21 19 17 15 14 12 11 9 7 5 3 1 1 4 6 8 11 13 15 16 18 20 21 23 25 26 27 28 29 29 30 29 28 29 31 32 32 32 32 33 33 32 32 32 32 30 28 26 25 24 23 22 22 23 23 19
29 28 29 31 31 30 28 28 29 29 29 28 28 27 26 25 24 24 24 25 25 25 25 25 24 25 26 26 25 24 22 19 16 15 13 12 10 7 5 3 1 1 4 6 8 10 13 15 17 19 20 21 23 25 26 27 28 29 30 30 29 28 29 31 31 32 31 32 34 34 33 32 32 32 30 28 27 27 26 26 24 21 20 20 19
27 26 29 31 30 28 28 29 29 29 29 29 28 28 27 26 25 25 25 25 24 24 24 24 23 25 29 30 28 26 23 20 18 16 14 13 11 8 6 4 1 1 4 6 8 10 13 16 17 19 20 21 23 25 26 27 29 29 30 29 28 28 30 31 31 31 31 33 35 35 34 33 33 32 31 29 28 28 27 26 25 25 25 23 23
25 25 27 29 29 28 28 28 29 29 29 29 29 28 27 27 27 27 26 25 24 24 24 24 24 27 30 29 27 25 23 21 19 18 15 13 11 9 6 4 1 1 4 7 9 11 14 16 17 18 20 21 23 25 26 28 29 29 29 29 28 29 31 32 31 32 32 34 36 36 35 35 34 32 32 32 31 30 28 25 25 26 26 25 25
26 25 26 28 30 29 27 27 28 29 29 29 28 29 29 29 29 28 27 26 26 26 24 23 25 28 28 24 21 21 21 20 19 18 15 13 11 8 5 3 1 1 4 7 10 13 14 16 16 18 19 21 23 25 27 29 29 29 29 29 30 30 31 32 33 34 34 35 37 37 36 37 36 33 33 34 33 31 29 28 27 27 25 23 24
26 26 26 28 29 28 28 28 29 29 29 28 29 30 31 31 30 30 29 28 28 27 25 25 27 28 25 20 19 20 20 19 18 17 15 13 10 7 5 3 1 1 4 7 9 11 13 15 16 17 18 20 22 24 26 28 29 30 30 30 31 33 32 33 35 36 35 36 39 39 37 37 36 35 34 34 33 32 31 29 28 26 25 23 23
26 25 25 26 27 27 27 28 28 28 29 30 30 30 30 30 28 28 29 28 28 27 27 27 28 27 23 21 21 21 20 18 18 16 14 12 9 7 5 3 2 2 4 6 8 10 12 14 15 16 17 19 20 22 25 26 27 29 30 31 32 33 33 34 37 38 37 38 40 40 38 37 37 35 35 35 34 33 30 28 26 27 26 24 20
26 25 25 25 26 26 26 28 28 28 29 30 30 29 28 28 28 28 28 28 28 28 28 28 29 27 24 23 23 21 20 19 18 16 13 11 8 6 5 3 3 4 5 6 7 9 11 13 14 16 18 19 21 22 24 25 27 28 29 30 31 32 33 38 40 38 37 40 41 39 38 38 37 36 35 36 35 32 29 28 28 27 26 23 18
26 26 27 26 26 26 27 28 27 28 31 34 33 30 29 29 28 28 28 28 29 29 29 29 28 26 24 24 23 21 20 19 17 15 13 10 8 6 4 3 4 4 5 6 7 9 11 12 14 16 18 20 21 23 24 25 26 28 28 29 29 31 36 42 41 37 37 41 42 40 38 38 37 37 37 36 35 33 31 30 30 28 25 24 22
27 27 27 27 27 27 27 27 28 29 33 34 33 30 29 29 28 27 28 28 29 29 29 28 27 26 24 24 23 22 20 18 16 14 12 9 7 6 4 3 4 4 5 6 7 9 11 12 13 15 17 19 21 23 25 26 27 28 28 28 29 33 39 44 40 35 37 42 43 40 38 38 37 38 38 36 35 35 32 31 31 30 28 27 26
27 26 26 27 27 27 26 27 29 30 31 29 28 28 28 28 28 27 28 28 28 29 28 27 26 25 24 23 22 21 19 17 15 13 11 9 7 5 4 3 4 4 5 6 7 9 10 12 13 14 16 19 21 23 25 26 28 29 29 29 31 36 42 43 39 35 38 44 44 40 38 38 37 38 38 37 36 36 33 30 29 30 29 28 27
26 26 26 26 26 27 27 28 29 30 30 30 30 29 29 28 27 27 28 27 27 27 28 27 26 25 24 23 21 20 18 16 14 12 10 8 6 4 3 3 4 5 5 6 8 10 11 12 14 15 16 19 21 22 25 27 29 29 30 30 33 38 41 41 38 36 40 45 44 40 39 39 38 37 38 38 37 36 35 32 30 30 30 29 27
25 26 26 26 25 26 27 29 32 32 32 34 33 30 28 28 28 27 27 27 26 26 26 26 26 25 24 22 21 19 17 15 13 11 9 8 6 4 3 3 3 4 5 7 9 10 12 14 15 16 17 19 20 22 25 27 29 30 30 31 34 38 40 40 38 37 40 44 45 41 39 40 39 37 38 38 37 36 36 34 31 30 30 29 27
25 26 26 26 26 26 28 31 34 35 34 34 32 29 29 29 29 28 28 27 27 26 26 26 25 24 23 21 20 18 16 14 13 11 9 7 5 3 2 2 3 4 5 7 8 10 13 15 16 17 18 19 21 23 24 27 29 30 30 31 34 37 39 39 38 37 39 43 44 42 41 40 39 38 38 38 38 37 36 35 33 30 28 27 26
Wind_Direction
216 216 217 217 216 214 214 213 213 212 211 210 210 209 208 208 208 207 206 206 205 204 204 204 205 206 207 209 213 216 219 221 222 222 224 227 230 233 237 239 244 250 256 261 263 265 266 266 268 271 271 271 271 270 270 270 270 267 263 261 259 252 251 253 252 272 280 281 284 288 291 294 293 293 294 293 293 294 293 292 290 289 287 287 287
216 217 216 216 216 215 214 212 210 211 210 210 209 209 208 207 207 206 205 204 204 204 204 204 205 207 208 210 213 217 220 220 220 221 223 226 228 232 237 239 245 251 255 260 263 266 267 267 269 272 273 271 270 271 272 272 270 269 266 261 261 258 250 253 259 264 278 283 284 287 291 292 290 291 293 292 293 294 292 291 290 288 286 285 285
218 217 215 215 215 214 212 210 209 209 209 209 209 208 207 206 205 205 204 203 203 204 205 206 206 207 208 211 213 216 218 218 219 222 224 227 230 234 239 242 248 253 256 260 265 267 267 268 270 273 273 273 273 273 274 274 271 269 269 266 264 264 258 252 257 261 270 279 283 285 289 291 289 290 293 291 292 293 290 289 289 287 285 284 284
217 216 215 214 212 210 210 209 208 208 209 209 209 207 206 204 204 204 204 203 204 204 206 207 206 206 207 208 211 213 215 217 219 222 226 230 235 238 242 246 250 254 259 262 266 268 267 268 271 273 274 274 275 276 274 274 273 272 272 271 267 265 265 258 254 258 264 273 277 278 283 288 287 288 293 292 290 291 288 287 287 284 284 283 282
215 213 212 211 208 207 207 207 207 208 209 209 208 206 204 203 203 203 203 203 204 204 205 206 206 206 206 208 211 212 215 217 219 223 228 231 236 239 243 248 252 257 261 264 267 268 267 268 271 273 275 275 275 277 276 276 277 275 272 270 269 267 266 262 254 254 259 266 272 274 277 282 283 283 287 289 288 288 285 283 284 282 282 281 279
212 210 208 207 206 205 205 205 207 208 208 208 206 204 203 202 202 202 203 204 204 204 205 205 206 206 207 209 211 213 214 217 220 224 229 231 234 240 245 250 254 258 262 265 268 267 267 268 271 272 273 274 275 277 279 279 276 275 273 270 270 266 262 260 254 252 255 259 266 272 271 275 280 280 281 282 280 282 283 284 283 280 280 279 277
209 207 205 204 204 204 205 206 207 207 207 206 204 203 202 202 202 202 204 204 204 204 204 205 206 206 207 208 210 212 214 217 221 224 226 229 233 239 245 250 254 259 263 266 267 267 268 269 270 272 273 273 276 278 279 278 275 274 274 271 267 262 259 259 256 257 260 257 260 267 267 272 277 276 278 280 274 273 278 282 284 282 279 276 276
205 204 203 202 204 206 206 206 206 206 205 204 203 202 201 201 201 202 203 203 204 205 204 204 205 205 207 208 210 212 214 216 220 222 223 229 234 238 243 248 255 260 263 265 267 268 270 271 272 274 275 275 276 277 276 276 274 271 268 264 262 259 259 260 257 258 262 258 260 265 264 269 273 270 274 279 271 268 273 275 278 281 282 278 277
203 201 201 203 206 206 205 204 204 203 202 201 201 200 199 200 200 200 202 202 203 205 204 204 203 203 204 207 209 211 214 217 219 221 224 229 232 236 242 249 255 260 263 266 270 271 271 272 273 275 275 275 274 274 275 275 274 273 272 271 269 266 266 267 263 261 259 255 259 262 260 263 266 265 268 268 263 266 272 273 272 276 280 278 276
201 200 201 205 206 204 202 201 199 199 199 199 199 199 198 198 198 199 200 201 202 202 202 203 203 203 203 205 207 210 214 217 218 220 225 227 230 235 243 251 256 260 264 266 268 269 269 270 273 274 274 274 274 276 277 277 275 276 278 279 278 277 278 278 276 274 268 263 265 265 261 263 266 265 266 267 267 269 270 269 268 271 276 276 277
200 201 204 205 203 200 198 197 196 197 197 198 198 197 197 196 196 197 198 198 200 200 201 202 202 203 203 203 205 209 213 216 214 215 218 220 231 243 248 253 256 257 259 260 262 266 270 273 275 275 274 276 279 280 279 278 277 277 278 279 279 280 282 282 283 281 277 275 275 273 270 271 274 276 275 275 276 273 270 269 267 268 271 270 277
201 203 204 202 199 197 196 194 194 196 196 196 196 195 195 194 194 195 195 196 197 198 199 200 200 200 201 201 204 208 211 212 208 207 209 210 223 240 247 249 253 253 252 257 263 268 273 275 275 275 276 279 282 281 279 278 279 280 281 281 281 281 281 282 283 283 281 280 279 278 275 275 277 279 277 277 279 277 274 272 268 267 269 267 271
202 202 201 199 197 196 194 193 193 194 194 194 194 192 192 192 192 193 194 195 195 195 195 197 198 198 199 200 203 207 209 206 201 200 204 210 217 229 240 245 249 252 253 258 265 269 273 277 277 277 280 282 281 280 280 280 281 283 283 283 284 284 283 281 281 281 282 281 279 277 277 277 278 277 276 276 277 277 275 271 269 268 269 271 272
200 199 198 198 198 195 193 192 192 193 192 192 191 191 191 191 191 192 192 191 191 192 191 193 195 196 198 199 201 206 206 200 197 199 202 210 217 223 235 244 246 249 254 259 266 270 273 276 278 280 282 282 281 280 281 283 285 286 287 286 286 286 286 285 283 281 279 276 272 271 274 275 275 275 276 275 272 271 270 268 268 265 264 268 270
197 197 197 197 196 193 191 191 190 190 190 189 189 190 189 189 189 189 190 189 190 190 191 192 194 194 196 198 200 203 202 196 196 202 204 206 215 223 232 240 243 248 256 261 267 271 272 276 278 280 281 281 281 283 286 289 289 290 291 291 290 289 287 284 282 280 277 274 271 270 273 274 274 274 274 273 270 267 266 266 266 265 264 266 268
195 196 196 195 193 191 190 189 188 188 188 187 188 188 188 187 187 187 188 188 189 190 190 192 192 193 194 197 199 199 197 195 198 203 204 203 210 222 231 239 246 253 260 265 269 272 274 277 278 279 280 281 282 286 290 293 294 295 296 295 293 291 288 287 286 284 283 281 280 280 281 281 281 281 278 276 274 271 269 267 263 261 260 262 263
194 195 195 194 192 191 189 188 187 186 186 186 187 187 187 187 187 187 187 187 188 189 190 191 192 192 192 192 195 195 191 194 200 201 199 200 207 222 233 242 250 256 262 268 273 276 276 277 278 280 282 283 284 290 295 298 300 299 296 295 294 293 293 295 295 293 291 289 288 287 287 285 286 286 284 281 279 277 275 271 263 258 255 252 257
196 195 196 194 192 191 190 189 187 186 186 187 187 186 186 186 188 189 188 188 189 191 190 189 188 190 190 189 191 192 190 192 197 197 194 197 208 223 233 243 251 258 268 274 277 279 279 279 280 281 282 284 288 294 300 302 301 299 297 297 298 298 299 302 302 300 298 295 292 291 290 289 289 288 285 282 280 277 273 270 267 264 258 253 259
198 198 198 195 192 191 191 190 189 188 188 189 188 186 186 187 188 189 190 189 190 189 188 185 183 184 187 187 187 189 189 189 192 192 191 194 207 222 232 243 253 262 274 280 281 282 283 282 283 282 283 288 293 298 303 305 303 302 302 303 301 299 301 303 302 300 301 301 301 301 298 296 293 290 287 284 282 277 269 264 263 261 256 257 258
203 200 196 192 191 192 191 191 191 190 189 188 187 186 186 185 185 186 188 188 185 184 184 183 180 180 183 184 186 188 188 186 188 188 186 192 207 220 230 242 254 266 277 280 280 284 287 286 285 284 286 292 298 303 306 308 307 306 306 303 300 299 302 304 303 304 306 307 307 305 301 299 296 293 290 287 284 279 270 262 257 253 251 254 254
206 200 195 192 192 192 192 192 192 191 189 186 184 185 185 185 184 183 183 183 181 180 181 180 178 179 181 182 184 187 184 182 183 183 183 194 208 218 229 241 255 270 277 278 280 286 289 288 286 286 291 298 304 308 309 309 308 307 304 301 298 301 305 308 309 311 310 308 305 303 301 300 298 295 293 290 285 280 270 262 257 252 248 248 250
203 198 196 194 193 192 192 192 190 189 187 184 182 183 184 184 183 181 178 179 179 178 179 179 177 177 180 182 182 181 178 177 178 179 184 198 207 213 226 238 252 269 277 280 284 287 288 288 287 290 298 304 308 309 309 309 309 306 302 301 302 306 310 313 312 310 307 305 303 301 299 300 298 295 296 298 296 290 278 266 258 254 251 248 248
199 195 194 192 193 192 191 190 188 186 185 184 182 180 180 181 180 179 177 175 175 175 176 177 176 174 176 179 178 175 173 174 177 182 189 197 204 212 224 235 248 263 274 282 286 287 288 288 289 296 304 308 309 309 309 310 309 305 304 306 309 312 314 312 309 306 302 300 299 298 298 300 298 296 297 300 302 301 294 282 268 260 255 253 250
194 192 191 190 190 190 188 188 187 185 184 183 181 179 178 178 177 178 177 174 172 172 174 175 174 171 172 175 173 170 171 173 177 182 189 196 205 217 226 235 248 261 272 280 284 285 288 290 295 303 308 308 308 309 310 310 309 308 311 313 314 314 313 310 308 303 299 298 299 299 300 300 297 295 296 298 299 297 296 292 282 268 260 257 254
190 189 188 188 187 186 185 185 186 185 184 183 181 179 177 176 176 177 177 175 172 171 172 175 175 173 171 170 169 169 173 178 180 182 190 200 211 221 227 233 251 268 274 280 283 285 289 294 301 307 308 309 312 313 313 312 312 313 315 315 314 313 311 309 307 304 299 299 301 302 302 300 297 296 297 298 297 295 293 295 292 280 266 258 256
189 187 185 186 185 182 180 181 183 185 184 184 184 183 179 178 177 176 177 176 175 173 173 174 175 174 171 168 165 168 174 179 177 173 175 188 201 212 222 237 258 268 272 280 286 288 290 297 302 305 308 311 313 312 311 313 315 316 316 315 314 313 312 310 308 306 302 301 301 301 302 304 303 301 300 299 296 295 297 299 300 293 278 262 255
187 186 185 185 183 181 180 179 180 182 183 184 185 184 183 181 178 176 177 176 174 174 173 173 174 174 170 165 165 169 173 175 173 169 169 176 184 195 216 244 263 267 275 286 289 286 288 294 301 309 317 320 319 317 317 318 320 320 319 319 318 315 312 309 308 306 304 301 299 299 301 304 305 304 303 302 298 298 301 299 298 299 292 277 261
188 187 187 185 184 184 183 181 180 180 182 183 184 184 185 184 182 181 180 177 173 172 175 176 177 175 169 166 165 167 174 181 178 171 170 174 179 192 218 248 264 268 278 287 285 283 289 299 312 326 333 333 329 328 327 324 322 321 321 321 320 317 313 311 309 308 306 303 301 300 302 304 305 304 304 303 301 301 302 298 295 298 299 293 278
189 188 187 185 185 186 186 184 182 180 180 182 184 186 186 186 186 185 184 181 179 178 179 181 182 178 172 169 168 169 178 183 176 164 162 172 181 198 221 241 254 263 275 286 285 289 299 316 330 336 336 334 330 328 326 324 322 322 324 323 321 317 315 314 313 312 312 309 304 303 304 305 305 305 305 304 302 301 301 299 298 299 299 297 290
187 186 185 185 186 185 184 185 183 181 179 178 179 182 186 190 190 187 184 185 187 187 186 186 184 179 174 173 176 178 174 168 164 166 175 182 187 199 214 226 239 254 272 282 286 300 321 334 335 334 333 331 326 322 321 322 322 323 324 322 318 317 316 316 315 315 315 312 306 304 305 306 307 307 306 305 303 303 301 298 297 298 297 294 292
185 187 187 189 188 186 184 183 182 181 181 178 174 172 173 182 189 187 184 185 187 189 190 187 182 178 174 170 170 169 161 155 161 173 176 174 179 189 200 208 214 228 263 280 295 326 344 337 331 333 334 327 321 317 318 320 321 321 320 317 316 316 317 317 319 319 316 312 307 307 308 308 308 307 307 305 304 303 303 300 297 296 295 291 289
191 193 194 193 189 186 184 182 181 179 179 178 175 169 162 160 171 180 181 178 174 174 175 174 169 169 170 164 159 159 163 166 168 166 161 164 170 172 178 183 173 188 246 287 330 353 349 335 330 332 330 322 316 316 317 318 318 317 314 312 313 317 318 319 320 319 316 311 309 310 311 310 308 307 306 306 305 303 303 302 297 294 295 291 286
201 199 195 191 187 187 185 183 182 181 179 178 176 172 166 160 158 162 165 164 160 158 160 160 155 154 159 162 162 165 171 170 161 156 156 156 155 163 177 172 154 177 249 322 0 358 347 340 334 329 324 318 315 316 317 318 317 313 309 307 310 314 318 320 320 319 316 313 312 313 313 311 310 310 308 307 305 302 301 301 297 293 293 291 287
208 204 196 189 186 187 187 185 184 183 182 179 177 175 173 168 160 155 156 158 157 156 157 157 153 150 153 159 165 170 169 162 156 153 148 145 154 176 185 175 165 173 306 7 7 354 346 340 332 326 322 317 315 317 319 319 315 310 306 307 311 314 318 321 322 320 318 317 317 316 315 314 312 312 311 308 305 302 299 298 298 295 291 287 287
209 205 198 192 188 187 187 186 184 183 182 181 180 178 174 169 163 159 158 156 153 151 152 154 156 155 155 159 166 168 164 158 153 146 141 153 174 185 182 176 173 169 48 18 1 349 343 335 326 322 319 315 318 323 322 316 311 308 309 312 314 316 319 321 321 321 320 321 320 319 317 317 315 313 311 308 305 303 301 300 299 296 291 287 285
206 202 196 192 190 187 186 185 184 183 183 182 181 178 171 165 162 159 156 152 148 145 146 148 150 152 155 160 164 164 160 156 148 141 147 172 187 190 190 185 172 129 34 9 356 348 342 334 327 324 323 325 329 328 320 311 309 310 313 316 316 317 319 319 320 321 321 321 321 320 319 319 317 316 314 310 305 303 302 300 298 295 292 289 286
202 199 194 191 189 186 184 184 183 182 180 177 176 173 168 164 161 156 152 149 146 142 141 143 145 147 153 158 160 160 157 150 142 144 161 181 187 189 193 187 156 64 15 5 354 343 337 335 332 333 336 337 334 326 315 310 311 314 317 318 317 316 317 318 319 320 320 320 321 321 320 319 319 319 317 313 308 305 301 298 297 295 294 292 287
203 200 194 189 185 181 180 180 178 176 174 173 172 169 164 162 160 155 151 149 146 143 144 146 149 153 156 157 156 156 155 154 156 165 177 186 187 187 187 181 150 27 7 1 349 336 333 336 339 343 345 341 331 320 313 311 316 320 320 319 318 317 318 320 321 321 321 322 323 323 321 319 319 320 319 314 310 308 305 303 301 298 296 295 289
203 200 193 186 181 179 178 175 173 172 171 169 169 166 162 160 158 154 150 148 146 147 149 152 156 161 163 160 158 159 161 164 171 178 183 186 190 192 191 192 195 13 2 352 343 335 335 342 348 350 346 338 327 319 316 317 322 323 322 319 318 319 321 322 322 321 322 324 324 324 323 320 318 319 318 315 310 308 306 305 303 297 293 291 285
199 193 186 181 178 177 175 172 171 171 170 167 166 164 161 159 156 152 150 149 150 152 155 157 161 167 168 167 167 169 171 172 176 181 185 187 190 192 191 193 198 8 352 342 343 344 346 352 355 350 343 335 328 323 324 326 326 325 323 321 319 319 321 322 321 320 322 325 325 325 324 322 320 319 318 315 313 310 306 302 298 295 292 287 281
192 183 180 177 173 171 171 170 171 171 168 166 164 161 159 157 154 152 152 152 152 154 157 161 164 167 169 170 172 175 177 178 179 182 185 184 187 190 189 184 176 4 348 345 352 356 357 358 355 346 340 336 332 331 333 333 330 325 323 322 321 321 322 323 323 322 323 325 327 328 326 324 323 321 318 317 316 314 309 304 298 296 294 288 283
184 177 175 173 170 169 169 168 168 166 163 162 161 159 156 155 154 153 152 152 153 155 157 160 162 163 163 165 168 173 178 179 180 181 181 180 181 182 175 167 175 349 356 359 2 3 359 356 351 345 341 339 338 339 339 336 332 327 324 323 323 323 323 324 326 326 326 328 329 329 327 326 324 321 319 318 319 317 315 313 306 299 295 292 288
180 174 171 169 169 169 167 164 161 160 159 159 159 158 157 156 155 153 151 151 153 156 155 155 157 157 156 158 165 171 175 178 178 178 177 176 174 170 162 162 165 25 19 13 8 4 357 352 349 347 344 344 345 344 342 339 335 330 325 323 323 324 325 326 328 328 330 331 331 331 329 327 326 324 322 321 322 320 318 316 310 303 299 297 293
172 167 165 164 164 162 160 159 157 157 157 157 155 155 155 153 151 149 149 149 152 155 154 154 155 153 151 157 167 172 174 176 176 175 174 171 167 164 161 156 123 59 38 22 11 4 357 352 349 348 349 351 352 350 347 346 342 335 328 325 323 324 327 329 330 330 331 333 333 332 331 329 327 326 325 325 325 323 319 315 311 308 305 301 297
164 160 157 156 154 154 155 155 155 154 153 152 150 150 150 149 147 147 148 148 150 152 152 153 154 153 153 159 167 172 173 173 173 171 169 167 165 165 157 133 89 59 42 26 12 3 357 353 350 348 350 355 356 354 352 352 349 343 336 330 327 327 330 331 331 331 334 336 336 334 332 330 329 328 327 327 326 324 321 316 313 311 309 306 303
158 155 153 151 150 151 152 152 152 152 150 148 145 144 144 144 145 147 148 149 149 150 151 153 155 157 159 163 167 170 171 170 169 167 166 166 169 166 150 114 80 56 37 20 7 1 358 356 353 352 353 355 356 354 353 352 349 346 342 337 333 332 334 334 334 334 338 339 339 336 333 332 330 328 328 328 328 326 322 319 317 314 313 311 308
153 151 150 150 149 149 149 149 147 146 146 144 141 140 140 142 143 144 146 148 149 149 152 155 158 161 162 164 165 167 168 167 166 164 165 169 171 162 140 108 82 60 35 17 6 2 360 358 357 357 356 355 355 355 354 352 349 346 343 341 338 337 338 337 337 339 341 342 341 339 336 334 332 331 331 332 331 329 325 322 321 322 320 315 309
148 146 146 147 146 145 145 145 143 142 142 141 139 138 139 139 140 142 144 147 148 150 152 155 158 161 162 163 164 166 166 165 165 165 168 172 170 158 136 104 73 49 32 19 9 4 3 2 1 360 358 357 356 357 356 354 350 346 343 342 341 340 341 341 341 343 344 345 344 343 341 338 335 334 334 335 334 333 330 325 323 323 323 318 311
144 143 143 144 144 144 145 145 144 143 142 141 139 137 137 138 139 141 144 146 148 150 153 155 157 160 161 162 164 166 166 166 166 169 174 177 173 158 131 95 60 34 20 14 9 6 6 5 2 0 359 359 359 360 359 357 353 347 343 342 342 342 344 345 346 346 347 347 347 346 345 342 339 337 337 337 337 336 334 330 326 325 324 322 316
139 139 139 140 141 142 143 142 141 140 140 139 138 136 136 138 139 141 144 146 147 150 153 155 157 160 162 163 165 167 167 168 170 174 179 183 178 160 126 85 51 24 9 7 6 6 6 6 3 1 0 0 2 2 1 359 356 350 345 342 343 343 345 347 349 349 349 350 350 349 347 345 343 341 341 341 340 339 337 334 331 328 326 324 321
132 133 134 135 136 137 138 137 136 136 137 138 137 136 137 139 140 142 145 147 148 151 154 156 158 160 162 163 165 166 166 168 172 176 181 182 173 150 118 71 38 14 360 358 1 4 5 5 3 2 2 2 3 3 2 360 358 354 347 342 342 344 347 349 350 350 351 352 352 352 351 349 347 345 344 344 343 341 340 337 334 330 326 325 326